GFSSE_925_thetae_210.txt.gz
Theta_e
354 343 337 327 324 326 337 339 339 340 340 339 338 338 335 331 332 333 333 333 329 326 331 335 336 332 329 330 333 335 340 342 340 348 347 346 345 344 343 341 338 336 333
354 343 338 329 323 323 334 338 339 339 339 339 338 339 335 332 333 334 334 334 329 328 333 335 334 330 333 337 339 342 345 345 349 352 349 345 344 342 340 337 334 332 331
347 343 339 332 324 323 326 337 337 338 338 338 339 337 334 332 333 333 335 335 330 328 333 335 331 332 337 340 341 346 345 346 345 345 343 342 341 340 337 334 332 331 330
344 343 341 334 326 323 324 329 334 337 337 337 336 335 332 331 331 330 335 334 327 327 333 333 329 334 340 340 341 344 347 347 348 344 342 339 338 336 334 332 331 329 328
348 343 342 337 330 324 324 325 327 333 334 334 332 330 330 330 329 333 334 328 325 327 333 332 330 338 340 341 343 346 348 348 346 342 337 332 332 334 331 330 329 328 328
345 343 343 339 335 327 323 324 325 330 329 328 329 329 329 329 334 334 330 323 325 327 332 327 333 339 341 342 345 347 348 347 341 337 331 330 329 332 331 329 329 328 327
345 344 342 341 338 333 325 324 324 327 326 325 326 327 329 334 335 333 325 323 324 327 331 326 336 340 342 346 347 347 347 345 338 332 329 326 329 330 330 329 328 326 327
348 344 342 341 340 337 332 324 324 325 325 325 325 327 331 333 333 329 323 323 323 328 330 327 338 340 343 345 348 347 346 342 334 329 328 327 329 330 329 328 327 326 325
351 347 344 342 341 340 337 329 325 324 326 325 325 327 330 330 331 327 324 323 324 329 329 328 337 340 342 346 347 346 345 339 332 329 327 328 330 329 328 327 326 326 325
353 350 347 346 343 342 340 337 329 325 326 326 325 327 330 329 329 328 327 323 324 329 329 328 337 339 341 343 346 347 345 339 332 329 327 330 330 328 328 327 326 325 324
354 353 350 346 346 345 343 340 337 329 326 328 327 328 330 330 330 331 329 324 324 328 331 328 335 338 341 343 346 347 346 339 332 328 327 330 329 328 327 326 325 324 324
355 354 352 349 347 348 348 344 341 338 329 329 329 329 330 331 331 332 330 325 326 328 332 329 334 337 340 343 347 348 345 340 332 329 328 329 328 328 327 326 325 324 323
355 355 353 352 349 346 348 347 346 343 338 332 331 330 331 333 332 333 329 326 325 326 330 331 331 337 339 343 345 346 345 341 332 329 330 327 328 328 327 326 325 323 323
349 353 353 353 351 352 351 348 347 348 345 338 333 332 332 333 334 333 330 326 326 325 328 330 329 335 339 343 345 346 344 339 332 329 331 325 327 328 327 326 325 323 323
335 340 348 351 351 349 347 347 346 348 346 343 336 335 335 335 334 334 332 328 328 326 327 329 331 331 337 342 344 346 345 342 332 329 330 325 325 328 328 326 325 323 323
327 331 340 348 351 349 347 346 344 345 346 344 342 337 336 335 335 335 334 331 329 328 326 333 332 328 333 342 345 345 345 343 335 329 329 326 324 326 327 326 325 323 323
328 332 339 345 350 350 347 345 345 343 341 342 343 341 339 336 335 336 336 334 331 331 333 336 338 337 329 337 344 344 345 343 335 329 329 326 323 324 325 325 325 324 325
325 334 339 346 348 349 348 344 342 344 342 341 341 342 340 339 338 337 337 336 333 337 338 338 339 336 333 338 343 343 343 342 335 330 329 327 324 323 326 324 323 323 325
324 327 332 340 344 346 346 344 345 346 345 344 343 341 340 335 338 340 339 337 336 334 340 340 339 338 334 340 342 341 343 341 335 331 329 327 325 323 324 324 321 321 325
333 333 334 338 342 345 345 344 344 343 343 344 344 344 343 341 340 339 338 340 338 336 337 341 340 339 339 342 340 339 340 338 334 332 330 328 326 323 323 323 322 321 324
320 336 339 342 342 344 344 343 343 343 342 342 341 343 343 342 341 341 340 340 340 339 335 337 340 340 342 341 339 336 335 334 333 332 331 329 327 324 324 324 322 321 325
316 316 327 339 344 346 345 344 343 343 343 342 342 341 339 339 341 341 340 339 341 340 338 337 340 343 343 340 338 335 335 334 333 333 332 330 328 326 324 324 323 321 323
316 317 317 330 337 342 344 345 345 346 345 343 339 338 335 337 339 343 341 341 340 340 341 337 340 343 344 340 339 337 333 338 330 330 331 330 329 327 326 324 322 320 322
318 320 319 319 320 321 323 333 341 341 342 336 337 337 338 340 339 343 344 343 342 340 340 340 341 340 344 341 337 337 334 332 333 332 328 328 328 327 325 324 321 319 319
319 320 321 322 322 323 323 324 324 326 327 328 329 333 333 334 339 340 340 343 343 341 340 339 340 341 341 342 340 335 331 330 329 330 331 325 323 323 323 322 321 319 318
318 318 318 319 320 320 319 321 321 323 323 327 327 329 330 333 336 338 337 338 342 342 340 340 341 342 341 342 341 340 338 330 325 324 326 322 323 321 322 321 320 318 317

GFSSE_925_thetae_216.txt.gz
Theta_e
354 353 335 334 338 339 340 340 341 338 327 328 330 331 332 333 336 337 340 339 329 332 334 334 331 328 328 330 335 338 341 348 348 347 345 345 342 339 337 335 332 330 331
355 350 330 334 337 339 340 342 341 340 328 329 330 331 331 333 334 336 332 328 330 334 334 331 331 333 335 338 343 344 348 346 346 344 343 341 339 337 335 333 332 330 330
354 348 336 333 336 339 341 342 342 339 328 330 330 330 331 332 332 333 329 329 333 333 333 330 335 339 340 343 345 346 347 346 343 340 341 339 336 334 333 332 331 330 329
354 348 341 332 337 339 340 341 341 336 330 330 331 331 331 332 332 334 331 329 332 332 331 331 338 340 341 344 346 347 346 343 340 342 340 337 334 333 332 331 330 329 329
354 348 346 330 336 339 340 340 340 338 333 333 335 332 332 332 333 335 333 329 332 332 330 333 339 340 341 344 347 347 346 342 339 340 337 334 332 331 331 330 329 329 328
354 351 342 324 329 337 339 340 340 339 338 339 337 333 332 332 332 335 333 328 332 333 328 335 339 341 341 346 349 348 346 340 341 339 336 331 329 331 331 329 329 328 327
353 353 346 326 324 331 338 338 339 339 339 340 337 334 332 332 332 335 329 329 332 333 327 337 340 341 344 347 348 347 344 340 341 338 335 331 328 330 330 328 328 327 327
354 354 353 336 327 325 329 334 337 337 338 337 336 333 331 331 335 334 327 329 331 333 327 338 340 343 346 346 347 346 343 339 340 337 335 331 329 330 329 328 327 326 327
355 355 355 351 343 329 325 326 328 333 335 335 334 331 331 333 337 334 326 328 331 332 328 338 340 344 346 347 347 346 342 340 341 337 334 331 330 330 328 327 327 326 326
356 355 354 354 352 349 345 327 326 329 330 330 330 330 330 336 338 333 327 328 330 331 328 337 340 342 345 346 346 345 342 340 341 334 334 328 330 329 328 327 326 326 325
355 355 355 355 353 352 350 348 330 327 329 328 330 330 335 340 342 339 336 332 328 331 327 335 339 341 344 346 346 345 342 341 338 336 331 328 330 329 328 326 326 325 323
353 357 357 357 356 354 352 352 348 345 340 340 339 343 339 338 342 340 340 330 328 331 329 331 337 340 344 348 347 346 345 341 337 336 332 329 330 329 328 326 326 324 324
338 355 357 360 359 356 354 353 352 349 346 344 342 343 341 341 343 340 341 337 337 333 337 332 338 342 346 349 350 348 345 342 338 336 331 329 330 329 327 326 325 324 324
329 338 351 358 360 358 356 354 354 352 350 348 346 346 343 343 341 340 339 338 337 337 337 338 336 340 346 349 350 349 346 344 340 336 333 329 330 330 328 326 325 327 323
326 330 340 351 357 358 359 355 354 354 351 350 348 346 343 343 340 341 341 340 337 336 337 338 335 338 343 348 351 350 348 346 342 336 334 329 329 330 328 326 326 326 323
322 327 334 346 353 354 357 356 355 355 353 351 349 348 348 342 342 340 342 342 339 337 336 336 337 336 340 345 349 350 349 346 344 338 334 331 327 329 328 326 325 325 324
323 327 333 341 350 352 354 354 354 354 353 351 349 349 348 346 342 342 340 340 341 340 338 337 338 339 335 341 347 349 349 347 342 339 335 334 329 329 328 327 325 325 324
326 327 334 333 341 351 354 355 354 353 352 351 348 348 349 347 342 346 343 342 341 342 341 339 339 339 337 336 342 348 348 347 342 339 336 335 332 330 328 327 325 326 324
326 327 335 339 342 352 354 352 353 353 352 351 350 349 349 345 345 345 341 343 344 343 342 341 341 341 340 339 341 349 348 346 344 338 337 335 334 330 331 327 326 326 324
326 327 333 340 345 351 349 351 348 345 348 350 349 349 349 349 348 346 342 340 344 344 343 343 342 342 342 340 340 345 344 345 343 341 338 336 335 331 330 331 327 326 322
326 329 336 341 347 349 346 343 338 336 337 337 337 342 345 346 347 347 345 343 345 343 344 344 344 344 344 343 345 344 345 345 344 343 339 336 336 333 330 331 331 329 326
327 328 335 341 346 348 343 342 337 333 333 332 334 339 343 343 345 345 345 346 343 341 344 345 344 343 342 345 345 345 347 345 344 342 338 337 337 333 330 331 331 330 329
328 328 332 341 344 347 343 346 348 345 345 340 335 337 340 345 345 346 345 344 345 346 343 342 344 344 341 344 346 344 346 347 346 343 341 340 338 336 332 331 331 331 329
326 328 328 335 342 345 347 342 343 337 332 328 329 330 339 343 343 343 345 344 345 341 342 346 343 340 341 343 345 345 345 345 347 349 342 341 339 337 335 332 332 331 329
328 327 327 328 332 338 345 344 345 344 335 336 336 336 337 339 340 340 341 343 345 344 341 343 344 338 336 338 343 344 344 345 345 348 349 342 340 338 337 334 332 330 329
326 329 330 331 332 333 333 336 337 336 336 332 333 333 331 331 333 337 340 341 343 344 342 342 344 345 339 338 342 343 343 344 343 342 348 346 341 337 335 333 333 330 329

GFSSE_925_thetae_219.txt.gz
Theta_e
354 351 339 336 341 343 341 338 331 326 327 329 333 333 333 334 339 339 342 337 334 333 333 333 329 328 329 335 337 344 348 345 345 343 342 341 339 336 333 331 330 330 331
354 351 335 335 339 341 342 341 338 328 327 331 333 333 335 336 337 339 337 329 332 334 332 328 332 334 336 342 344 347 347 344 341 343 340 337 335 334 333 332 331 330 330
355 349 339 334 338 339 340 341 341 333 327 331 333 332 334 335 336 333 328 331 334 333 330 334 338 340 341 344 345 348 345 340 340 341 342 337 332 334 333 331 331 331 329
352 347 346 335 338 339 340 342 342 338 328 331 332 332 334 334 333 330 328 332 334 332 330 336 340 341 343 346 346 346 344 340 341 342 341 336 331 332 332 331 330 330 330
351 344 348 334 337 339 341 342 342 338 329 330 332 332 333 333 334 331 330 331 333 332 331 338 340 340 343 347 347 346 344 340 341 341 335 333 330 331 330 330 329 329 327
350 348 340 333 337 339 341 342 342 335 330 331 333 332 334 333 335 334 331 330 332 332 331 338 339 340 345 347 347 346 343 341 342 339 336 330 329 331 330 330 329 328 328
351 352 340 331 336 338 340 341 341 338 333 334 335 333 334 333 335 336 331 332 331 331 330 338 340 341 346 347 347 347 341 341 343 339 335 331 329 330 329 329 328 328 328
353 350 344 326 330 335 338 340 341 340 338 340 338 335 334 334 335 336 331 332 332 329 331 338 340 344 345 346 347 346 341 341 341 339 336 330 330 330 329 328 328 327 326
355 353 348 342 331 329 334 338 338 339 340 340 338 335 334 333 336 336 331 332 332 329 330 339 341 344 346 347 347 345 341 341 342 338 335 331 330 330 328 328 327 327 325
353 356 354 351 346 341 338 330 333 336 337 338 337 335 333 334 337 335 330 331 332 329 329 338 341 344 345 346 346 345 343 341 339 338 333 329 330 329 328 327 327 325 324
348 350 352 354 353 349 347 341 329 330 333 334 335 333 334 340 344 342 334 336 330 331 328 337 341 343 345 346 346 345 344 343 340 338 334 329 330 329 328 328 326 325 324
346 347 348 349 352 354 352 354 344 343 341 341 340 343 339 337 343 343 340 337 328 332 328 334 338 341 343 348 346 345 345 344 341 339 334 330 331 329 327 327 325 325 323
338 345 347 351 355 354 353 356 353 348 345 342 341 341 339 337 341 341 344 341 337 334 338 334 340 344 347 349 349 347 347 344 342 339 332 329 331 329 328 327 326 325 323
329 337 346 355 359 360 351 354 354 354 352 348 345 344 344 341 342 342 338 341 338 338 336 337 336 340 344 350 351 350 348 344 342 339 333 328 331 330 328 326 328 325 324
324 329 335 345 356 360 361 353 352 354 353 351 350 349 347 344 342 342 339 339 338 338 337 339 337 338 341 343 350 350 349 346 343 340 336 329 331 330 328 327 328 325 325
323 324 329 339 346 351 351 353 353 353 355 352 352 350 349 346 344 341 341 341 340 338 337 338 338 336 339 340 345 350 348 347 345 341 338 332 329 330 328 327 327 325 324
324 323 326 333 342 350 351 352 351 349 353 353 352 352 351 350 345 343 342 341 340 341 339 338 338 339 337 338 341 347 348 348 346 343 339 335 330 330 329 327 327 325 324
325 325 328 327 336 348 349 351 350 350 354 352 352 350 350 350 347 344 341 342 341 342 342 341 340 339 339 336 337 345 347 348 348 344 340 337 334 332 329 328 327 326 324
326 327 329 331 330 344 353 350 351 353 353 352 350 350 350 349 348 348 346 345 345 344 343 343 341 341 341 340 337 340 348 347 347 344 340 340 337 334 332 328 326 327 324
327 329 330 334 335 343 345 346 341 341 342 345 348 350 350 349 347 348 344 343 344 347 344 342 343 343 342 342 340 340 346 349 347 345 341 340 339 335 333 331 326 326 324
328 330 331 335 340 345 341 338 335 333 334 335 338 343 344 344 346 347 345 345 346 345 343 343 345 345 343 344 342 345 347 347 346 345 344 341 340 338 333 333 331 328 326
330 331 333 337 345 348 340 335 332 330 331 331 331 334 335 337 340 342 343 341 344 344 344 341 341 344 345 342 344 343 348 348 345 345 343 342 340 338 335 333 333 330 328
330 331 334 340 345 348 340 337 340 338 337 332 330 333 335 339 340 342 343 342 343 346 340 346 344 343 342 342 345 343 348 349 346 346 345 343 340 339 337 334 332 333 331
328 331 332 338 344 347 343 338 341 336 333 329 328 330 332 335 337 339 343 344 344 342 340 341 345 345 342 343 344 345 344 341 349 352 345 344 341 340 338 336 334 333 331
328 329 332 337 343 344 345 342 341 339 331 329 329 333 338 339 338 339 339 341 343 343 341 341 342 343 344 343 340 342 343 343 346 350 352 347 342 340 339 337 335 332 331
329 329 331 334 338 342 342 346 345 343 337 334 334 334 331 328 335 337 337 339 341 342 342 342 342 342 343 343 341 338 342 346 345 344 350 349 346 342 340 338 337 332 331

GFSSE_925_thetae_222.txt.gz
Theta_e
358 343 337 341 344 343 338 328 326 327 328 333 332 332 332 337 338 340 339 341 338 334 333 329 328 329 337 337 343 344 340 340 342 339 335 331 334 332 333 332 330 330 331
354 342 336 339 343 342 339 331 327 327 329 333 333 334 333 335 337 340 332 332 333 332 328 332 334 337 342 343 346 343 339 341 342 337 335 334 333 333 332 331 331 330 330
351 340 334 337 341 342 341 338 332 326 329 333 334 335 336 334 336 333 329 333 333 330 333 336 339 341 345 346 345 343 339 340 343 340 339 331 331 332 332 331 332 331 329
351 343 332 333 339 341 341 341 340 328 329 333 334 334 335 335 331 328 331 334 333 329 336 339 340 342 346 346 345 342 340 341 341 341 339 331 330 333 332 331 330 329 329
347 347 331 334 338 339 341 341 341 333 329 332 333 334 334 334 331 328 332 333 332 330 336 339 340 342 346 346 345 343 340 340 340 337 331 329 329 330 330 329 329 328 332
346 352 330 333 337 340 340 342 343 337 329 331 333 333 335 334 333 330 330 332 332 329 336 339 340 342 345 345 344 344 341 342 342 334 331 328 327 330 330 330 328 328 329
348 350 329 332 336 339 340 342 342 337 330 331 332 333 335 335 335 333 330 332 332 328 336 339 340 342 347 345 345 343 341 341 342 334 331 328 327 330 330 329 329 328 327
353 345 330 332 335 338 340 341 341 337 332 332 334 333 335 335 336 335 329 330 331 328 335 339 341 343 345 346 346 343 341 342 340 336 333 324 329 330 329 329 328 326 325
350 344 340 333 335 338 339 341 341 340 335 336 338 335 334 334 336 335 330 330 330 328 334 339 342 344 345 346 346 344 341 341 338 335 332 327 330 329 329 328 327 325 325
352 350 344 341 343 339 339 339 340 341 340 341 340 336 335 334 336 336 329 329 330 328 332 338 342 344 345 346 345 345 341 342 338 334 332 322 329 329 329 328 326 325 323
354 354 351 347 342 340 343 338 338 339 339 340 340 338 335 335 336 339 330 332 328 329 329 338 341 343 344 345 345 345 342 343 338 335 332 322 329 329 329 327 327 325 323
348 351 353 353 349 347 345 343 329 338 335 337 341 339 336 340 343 344 338 337 331 329 327 336 340 342 343 344 344 344 343 344 341 337 333 323 329 329 328 326 326 325 323
344 344 349 353 355 353 352 351 342 344 342 342 342 342 333 337 343 344 341 336 334 328 330 330 338 341 344 350 347 342 346 346 341 337 332 324 327 329 328 326 327 325 323
330 344 348 351 344 340 358 356 351 347 345 343 341 340 342 337 342 344 342 342 339 336 335 336 336 337 345 349 349 348 348 346 341 337 333 325 326 330 328 327 327 325 323
325 326 351 349 352 343 358 361 354 353 349 347 344 342 343 341 341 343 344 344 339 338 336 338 337 339 340 345 350 350 349 346 341 339 336 327 326 329 329 328 328 326 324
325 325 326 349 357 356 352 351 353 344 355 352 337 341 346 346 343 344 342 342 341 341 339 338 340 339 339 342 350 352 348 344 343 340 338 329 327 328 329 329 328 326 325
326 324 324 338 347 347 345 350 346 348 350 353 344 338 336 348 348 343 343 341 341 341 339 339 339 338 338 337 339 350 349 347 345 340 338 335 327 328 327 328 328 326 325
326 325 324 327 346 344 346 346 347 346 349 355 352 337 339 349 349 346 343 342 341 341 341 340 339 339 340 339 337 339 350 348 345 343 338 336 332 328 328 327 328 326 325
326 327 325 328 342 347 347 349 350 347 347 350 353 347 345 347 349 346 343 340 342 343 344 344 343 341 341 341 340 336 343 348 343 339 340 337 334 332 329 326 325 326 325
326 328 329 331 333 346 345 350 344 346 343 352 350 348 336 329 347 347 348 346 346 344 345 347 346 343 341 342 343 342 344 345 341 329 341 340 338 334 333 331 325 326 325
329 329 329 333 333 343 346 347 341 339 339 338 346 346 341 346 348 347 347 344 343 344 343 343 344 344 344 344 344 343 347 347 341 342 343 341 341 338 334 332 331 326 326
332 333 330 334 336 344 344 338 335 334 335 332 338 343 345 339 345 345 343 344 344 347 345 340 341 340 339 341 344 342 343 344 346 346 345 343 342 340 336 334 332 330 328
334 334 335 332 344 346 339 337 335 337 331 331 334 334 334 338 340 341 342 340 343 341 342 341 339 343 346 341 339 338 341 343 343 347 346 344 343 341 338 335 334 333 329
330 333 333 335 349 346 343 340 337 338 335 331 330 331 337 335 336 339 340 343 343 344 345 340 340 343 346 346 340 335 331 339 344 344 345 345 342 341 339 336 334 334 329
331 334 334 339 349 349 341 345 337 339 334 333 333 334 336 338 336 337 340 343 343 343 342 342 341 342 345 345 345 341 341 340 341 342 342 345 343 342 340 339 335 334 331
329 334 336 336 343 349 347 339 346 341 338 338 329 336 335 333 330 332 336 338 340 342 342 342 341 340 342 343 345 344 343 341 341 339 340 340 340 338 341 339 337 335 331